Location: Newark
(48.6461°N, 4.3644°W)
Time: 16:02:23
(UTC+00:00)

STARLINK 1065 - Pass Details

Date: 10 December 2019
Orbit: 549 x 550 km, 53.0° (Epoch: 28 January)

Event Time Altitude Azimuth Distance (km) Brightness Sun altitude
Exits shadow 07:12:22 - 271° (W) 2,085 6.0 -7.4°
Reaches altitude 10° 07:13:30 10° 259° (W) 1,828 5.8 -7.2°
Maximum altitude 07:15:29 13° 230° (SW) 1,626 5.8 -6.9°
Drops below altitude 10° 07:17:31 10° 201° (SSW) 1,834 6.4 -6.6°
Sets 07:20:42 0° 174° (S) 2,710 7.7 -6.2°
